Content
SEND FEEDBACK

Daily
Averages
Monthly
Summary
Philippines

BOOT, PHILIPPINES


Home > Asia > Philippines
Elevation: 36 feet     Latitude: 14 04N     Longitude: 121 03E

WEATHER
 
SELECT A DAY
Number of Records: 172,634;   Date Range: 7/1/96 - 8/30/14
 
SHARE

PRINT THIS DATA

[ ← Previous Day ]
WEATHER ALMANAC - AUGUST 14, 2013
[ Next Day → ]
[ °C ]   °F
Weather ElementAverageHighLow
Temperature84.8 °F89.6 °F (3:00 pm)78.8 °F (5:00 am)
Dewpoint75 °F79 °F (2:00 pm)71.6 °F (8:00 am)
Humidity71.5 %89 % (6:00 am)54 % (11:00 am)
Barometer28.79 in29.89 in (11:00 pm) (7:00 pm)
Wind Speed4.9 mph11.5 mph (1:00 pm)
Weather ElementAverage
Visibility6.1 mi
Wind DirectionSSE (168.2 °)

Weather ElementTotal
Precipitation---
Cooling Degree Days19.2 (Base 65)
Growing Degree Days34.2 (Base 50)
Averaged from 29 records on August 14, 2013
WEATHER CONDITIONS BREAKOUT
WIND DIRECTION BREAKOUT
WEATHER BY HOUR - AUGUST 14, 2013
[ °C ]   °F
Local TimeTemperatureDewpointHumidityBarometerVisibilityWind DirectionWind SpeedGust SpeedPrecipitationEventsConditions
1:00 AM80.6 °F73.4 °F79 %29.80 in6.2 miCalmScattered Clouds
2:00 AM80.6 °F75.2 °F84 %29.80 in6.2 miVariable1.2 mphMostly Cloudy
3:00 AM80.6 °F75.2 °F84 %29.77 in6.2 miCalmMostly Cloudy
4:00 AM80.6 °F73.4 °F79 %29.77 in6.2 miCalmMostly Cloudy
5:00 AM78.8 °F73.4 °F83 %29.77 in6.2 miCalmMostly Cloudy
6:00 AM78.8 °F75.2 °F89 %29.80 in5.6 miCalmScattered Clouds
7:00 AM82.4 °F73.4 °F74 %6.2 miCalmScattered Clouds
8:00 AM86.0 °F71.6 °F62 %29.83 in6.2 miESE (120°)3.5 mphScattered Clouds
8:00 AM86.0 °F72.0 °F55 %29.83 in6.0 miESE (120°)4.5 mphHaze
9:00 AM87.8 °F73.4 °F62 %29.83 in6.2 miWSW (240°)5.8 mphScattered Clouds
10:00 AM87.8 °F73.4 °F62 %29.83 in6.2 miWest (270°)9.2 mphScattered Clouds
11:00 AM88.0 °F73.0 °F54 %29.86 in6.0 miWest (280°)8.9 mphClear
11:00 AM87.8 °F75.2 °F66 %29.83 in6.2 miWest (270°)6.9 mphMostly Cloudy
12:00 PM87.8 °F73.4 °F62 %29.83 in6.2 miWest (280°)10.4 mphScattered Clouds
1:00 PM87.8 °F75.2 °F66 %29.80 in6.2 miWNW (290°)11.5 mphMostly Cloudy
2:00 PM88.0 °F79.0 °F68 %29.81 in6.0 miNW (320°)8.9 mphHaze
2:00 PM87.8 °F77.0 °F70 %29.77 in6.2 miWNW (300°)10.4 mphScattered Clouds
3:00 PM89.6 °F77.0 °F66 %29.77 in6.2 miWNW (290°)10.4 mphScattered Clouds
4:00 PM87.8 °F73.4 °F62 %29.77 in6.2 miWest (280°)11.5 mphMostly Cloudy
5:00 PM86.0 °F74.0 °F60 %29.79 in6.0 miWest (270°)8.9 mphHaze
5:00 PM86.0 °F73.4 °F66 %29.77 in6.2 miWest (270°)9.2 mphMostly Cloudy
6:00 PM86.0 °F75.2 °F70 %29.80 in6.2 miWest (280°)6.9 mphMostly Cloudy
7:00 PM84.2 °F75.2 °F74 %29.83 in6.2 miWNW (290°)4.6 mphRainLight Rain Showers
8:00 PM84.0 °F77.0 °F74 %29.85 in6.0 miWest (270°)4.5 mphRainLight Rain
8:00 PM84.2 °F77.0 °F79 %29.86 in5.6 miWest (270°)4.6 mphRainLight Rain
9:00 PM84.2 °F77.0 °F79 %29.86 in5.6 miCalmRainLight Rain
10:00 PM84.2 °F78.8 °F84 %29.86 in5.0 miCalmRainLight Rain
11:00 PM83.0 °F77.0 °F76 %29.89 in6.0 miCalmRainLight Rain
11:00 PM82.4 °F77.0 °F84 %29.86 in6.2 miVariable1.2 mphMostly Cloudy
Hourly data recorded from RPLL, located miles away from Boot, Philippines







STORIES FROM OUR PARTNERS